Flag for United Kingdom Weather past 2 weeks in Watford, England, United Kingdom

Now
43 °F

Passing clouds.


Feels Like: 36 °F
Forecast: 42 / 54 °F
Wind: 12 mph from West

Location: Northolt

Current Time: Apr 28, 2015 at 2:26:28 AM

Latest Report: Apr 28, 2015 at 12:50 AM


Visibility: N/A

Pressure: 29.89 "Hg

Humidity: 76%

Dew point: 36 °F

Location of WatfordLocation

Historic Weather in Watford — Graph

°F

Watford temperature yesterday

Maximum temperature yesterday: 54 °F (at 1:50 PM)
Minimum temperature yesterday: 37 °F (at 4:50 AM)
Average temperature yesterday: 46 °F

Past Weeks' High & Low Weather Summary

 TemperatureHumidityPressure
High75 °F (Apr 15, 2:50 PM)100% (Apr 14, 3:50 AM)30.57 "Hg (Apr 14, 3:50 AM)
Low36 °F (Apr 20, 4:50 AM)23% (Apr 15, 5:50 PM)29.65 "Hg (Apr 25, 2:50 PM)
Average52 °F64%30.13 "Hg
* Reported Apr 13 12:50 AM — Apr 28 12:50 AM, Watford, Weather by CustomWeather, © 2015

Note: Actual official high and low records may vary slightly from our data, if they occured in-between our weather recording intervals... More about our weather records

Advertising

Watford weather history for previous 24 hours

 ConditionsComfort  
Time TempWeatherWind HumidityBarometerVisibility
12:50 AM
Tue, Apr 28
43 °FPassing clouds.12 mph76%29.89 "HgN/A
11:50 PM
Mon, Apr 27
43 °FClear.8 mph76%29.89 "HgN/A
10:50 PM45 °FClear.10 mph66%29.89 "HgN/A
9:50 PM46 °FPassing clouds.10 mph66%29.89 "HgN/A
8:50 PM48 °FOvercast.10 mph58%29.89 "HgN/A
7:56 PM52 °FSunny.12 mph47%29.86 "Hg10 mi
6:54 PM52 °FSunny.10 mph44%29.86 "Hg10 mi
5:50 PM54 °FSunny.9 mph41%29.86 "Hg10 mi
4:50 PM54 °FSunny.8 mph41%29.86 "Hg10 mi
3:50 PM54 °FBroken clouds.6 mph41%29.86 "HgN/A
2:50 PM54 °FPartly sunny.2 mph44%29.86 "HgN/A
1:50 PM54 °FPartly sunny.5 mph44%29.86 "HgN/A
12:50 PM50 °FScattered clouds.5 mph47%29.89 "HgN/A
11:50 AM48 °FScattered clouds.7 mph54%29.89 "HgN/A
10:50 AM48 °FScattered clouds.5 mph58%29.89 "HgN/A
9:50 AM48 °FScattered clouds.6 mph62%29.89 "HgN/A
8:50 AM45 °FPassing clouds.7 mph66%29.86 "HgN/A
7:50 AM41 °FSunny.8 mph70%29.86 "Hg10 mi
6:50 AM39 °FPassing clouds.1 mph70%29.86 "HgN/A
5:50 AM37 °FClear.6 mph75%29.83 "HgN/A
4:50 AM37 °FClear.8 mph75%29.83 "HgN/A
3:50 AM39 °FClear.7 mph70%29.83 "HgN/A
2:50 AM39 °FClear.5 mph70%29.83 "HgN/A
Weather by CustomWeather, © 2015

See weather overviewHow to use our weather pages